Location: ????????
(55.0559°N, 39.1270°E)
Time: 16:31:58
(UTC+00:00)

Cosmos 2369 Rocket - Pass Details

Date: 15 November 2025
Orbit: 826 x 853 km, 71.0° (Epoch: 14 December)

Event Time Altitude Azimuth Distance (km) Brightness Sun altitude
Exits shadow 02:00:00 31° 336° (NNW) 1,442 3.2 -24.8°
Maximum altitude 02:02:46 70° 53° (NE) 902 2.4 -24.4°
Drops below altitude 10° 02:08:27 10° 138° (SE) 2,477 5.1 -23.6°
Sets 02:10:55 0° 140° (SE) 3,411 5.9 -23.2°
